• In Russia
  • List of Countries
  • For 7 days
  • Water Temperature
  • Satellite Maps
  • Weather Map
  • Weather Widgets
  • user-avatar
    Login

    Hourly Weather Andora

    Today, 21 October, Saturday

    Time Temperature Precipitation Wind Pressure Humidity
    00:00 +7°C° 0 mm 1 mps 626 mmHg 78%
    01:00 +7°C° 0 mm 1 mps 626 mmHg 76%
    02:00 +7°C° 0 mm 1 mps 626 mmHg 74%
    03:00 +7°C° 0 mm 1 mps 626 mmHg 72%
    04:00 +7°C° 0 mm 1 mps 626 mmHg 70%
    05:00 +7°C° 0 mm 1 mps 626 mmHg 68%
    06:00 +7°C° 0 mm 1 mps 626 mmHg 66%
    07:00 +9°C° 0 mm 1 mps 627 mmHg 61%
    08:00 +10°C° 0 mm 2 mps 628 mmHg 57%
    09:00 +13°C° 0 mm 2 mps 630 mmHg 52%
    10:00 +14°C° 0 mm 2 mps 630 mmHg 53%
    11:00 +14°C° 0 mm 2 mps 630 mmHg 54%
    12:00 +15°C° 0 mm 1 mps 630 mmHg 55%
    13:00 +14°C° 0.1 mm 1 mps 630 mmHg 60%
    14:00 +13°C° 0.1 mm 1 mps 630 mmHg 65%
    15:00 +12°C° 0.1 mm 1 mps 629 mmHg 70%
    16:00 +11°C° 0.1 mm 1 mps 629 mmHg 76%
    17:00 +8°C° 0.1 mm 2 mps 629 mmHg 83%
    18:00 +7°C° 0.1 mm 2 mps 629 mmHg 90%
    19:00 +7°C° 0.1 mm 2 mps 629 mmHg 91%
    20:00 +6°C° 0.1 mm 2 mps 629 mmHg 92%
    21:00 +6°C° 0.1 mm 2 mps 630 mmHg 93%
    22:00 +6°C° 0.1 mm 2 mps 630 mmHg 94%
    23:00 +7°C° 0.1 mm 1 mps 629 mmHg 94%

    Tomorrow, 22 October, Sunday

    Time Temperature Precipitation Wind Pressure Humidity
    00:00 +6°C° 0.1 mm 1 mps 629 mmHg 94%
    01:00 +6°C° 0 mm 1 mps 629 mmHg 94%
    02:00 +5°C° 0 mm 1 mps 629 mmHg 94%
    03:00 +5°C° 0 mm 1 mps 629 mmHg 93%
    04:00 +3°C° 0 mm 2 mps 629 mmHg 93%
    05:00 +3°C° 0 mm 2 mps 628 mmHg 92%
    06:00 +2°C° 0 mm 2 mps 628 mmHg 91%
    07:00 +3°C° 0 mm 2 mps 629 mmHg 84%
    08:00 +5°C° 0 mm 2 mps 630 mmHg 77%
    09:00 +6°C° 0 mm 2 mps 630 mmHg 70%
    10:00 +7°C° 0 mm 2 mps 630 mmHg 63%
    11:00 +8°C° 0 mm 3 mps 631 mmHg 57%
    12:00 +9°C° 0 mm 3 mps 631 mmHg 50%
    13:00 +9°C° 0 mm 3 mps 630 mmHg 51%
    14:00 +9°C° 0 mm 3 mps 630 mmHg 52%
    15:00 +9°C° 0 mm 3 mps 630 mmHg 54%
    16:00 +7°C° 0 mm 3 mps 629 mmHg 63%
    17:00 +5°C° 0 mm 2 mps 629 mmHg 72%
    18:00 +3°C° 0 mm 2 mps 628 mmHg 81%
    19:00 +3°C° 0 mm 2 mps 628 mmHg 79%
    20:00 +3°C° 0 mm 2 mps 629 mmHg 77%
    21:00 +2°C° 0 mm 2 mps 629 mmHg 76%
    22:00 +2°C° 0 mm 2 mps 629 mmHg 74%
    23:00 +2°C° 0 mm 2 mps 628 mmHg 73%

    Day after tomorrow, 23 October, Monday

    Time Temperature Precipitation Wind Pressure Humidity
    00:00 +2°C° 0 mm 2 mps 628 mmHg 72%
    01:00 +1°C° 0 mm 2 mps 628 mmHg 72%
    02:00 +1°C° 0 mm 2 mps 628 mmHg 73%
    03:00 +1°C° 0 mm 2 mps 628 mmHg 73%
    04:00 +1°C° 0 mm 2 mps 628 mmHg 72%
    05:00 +1°C° 0 mm 2 mps 628 mmHg 71%
    06:00 +1°C° 0 mm 2 mps 628 mmHg 70%
    07:00 +3°C° 0 mm 2 mps 629 mmHg 62%
    08:00 +6°C° 0 mm 2 mps 630 mmHg 54%
    09:00 +8°C° 0 mm 2 mps 631 mmHg 47%
    10:00 +9°C° 0 mm 2 mps 631 mmHg 44%
    11:00 +12°C° 0 mm 2 mps 632 mmHg 42%
    12:00 +13°C° 0 mm 2 mps 632 mmHg 39%
    13:00 +13°C° 0 mm 2 mps 632 mmHg 42%
    14:00 +13°C° 0 mm 2 mps 631 mmHg 44%
    15:00 +12°C° 0 mm 2 mps 631 mmHg 46%
    16:00 +9°C° 0 mm 2 mps 630 mmHg 55%
    17:00 +7°C° 0 mm 2 mps 630 mmHg 63%
    18:00 +5°C° 0 mm 2 mps 629 mmHg 71%
    19:00 +5°C° 0 mm 2 mps 629 mmHg 67%
    20:00 +5°C° 0 mm 2 mps 629 mmHg 64%
    21:00 +5°C° 0 mm 2 mps 629 mmHg 61%
    22:00 +5°C° 0 mm 2 mps 629 mmHg 58%
    23:00 +5°C° 0 mm 2 mps 629 mmHg 55%

    24 October, Tuesday

    Time Temperature Precipitation Wind Pressure Humidity
    00:00 +5°C° 0 mm 2 mps 629 mmHg 52%
    01:00 +5°C° 0 mm 2 mps 629 mmHg 51%
    02:00 +5°C° 0 mm 2 mps 629 mmHg 50%
    03:00 +5°C° 0 mm 2 mps 629 mmHg 49%
    04:00 +5°C° 0 mm 2 mps 629 mmHg 49%
    05:00 +5°C° 0 mm 2 mps 629 mmHg 49%
    06:00 +6°C° 0 mm 2 mps 629 mmHg 48%
    07:00 +9°C° 0 mm 1 mps 630 mmHg 46%
    08:00 +12°C° 0 mm 1 mps 631 mmHg 43%
    09:00 +14°C° 0 mm 1 mps 632 mmHg 40%
    10:00 +15°C° 0 mm 1 mps 632 mmHg 39%
    11:00 +18°C° 0 mm 1 mps 632 mmHg 37%
    12:00 +19°C° 0 mm 1 mps 633 mmHg 35%
    13:00 +19°C° 0 mm 1 mps 632 mmHg 38%
    14:00 +18°C° 0 mm 1 mps 632 mmHg 40%
    15:00 +18°C° 0 mm 1 mps 631 mmHg 42%
    16:00 +15°C° 0 mm 1 mps 631 mmHg 50%
    17:00 +12°C° 0 mm 1 mps 630 mmHg 58%
    18:00 +10°C° 0 mm 1 mps 629 mmHg 65%
    19:00 +10°C° 0 mm 1 mps 629 mmHg 65%
    20:00 +10°C° 0 mm 1 mps 629 mmHg 64%
    21:00 +10°C° 0 mm 1 mps 629 mmHg 63%
    22:00 +9°C° 0 mm 1 mps 629 mmHg 63%
    23:00 +9°C° 0 mm 1 mps 629 mmHg 62%

    25 October, Wednesday

    Time Temperature Precipitation Wind Pressure Humidity
    00:00 +9°C° 0 mm 1 mps 629 mmHg 61%
    01:00 +9°C° 0 mm 1 mps 629 mmHg 62%
    02:00 +9°C° 0 mm 1 mps 629 mmHg 62%
    03:00 +9°C° 0 mm 1 mps 629 mmHg 63%
    04:00 +8°C° 0 mm 1 mps 628 mmHg 63%
    05:00 +8°C° 0 mm 1 mps 628 mmHg 63%
    06:00 +8°C° 0 mm 1 mps 628 mmHg 63%
    07:00 +10°C° 0 mm 1 mps 630 mmHg 57%
    08:00 +13°C° 0 mm 1 mps 631 mmHg 52%
    09:00 +15°C° 0 mm 1 mps 632 mmHg 46%
    10:00 +16°C° 0 mm 1 mps 632 mmHg 43%
    11:00 +17°C° 0 mm 2 mps 632 mmHg 40%
    12:00 +18°C° 0 mm 2 mps 633 mmHg 37%
    13:00 +18°C° 0 mm 2 mps 632 mmHg 39%
    14:00 +18°C° 0 mm 2 mps 632 mmHg 42%
    15:00 +17°C° 0 mm 2 mps 632 mmHg 44%
    16:00 +15°C° 0 mm 2 mps 631 mmHg 51%
    17:00 +12°C° 0 mm 1 mps 630 mmHg 59%
    18:00 +10°C° 0 mm 1 mps 629 mmHg 67%
    19:00 +10°C° 0 mm 1 mps 629 mmHg 65%
    20:00 +10°C° 0 mm 1 mps 629 mmHg 63%
    21:00 +9°C° 0 mm 1 mps 630 mmHg 62%
    22:00 +9°C° 0 mm 1 mps 629 mmHg 59%
    23:00 +9°C° 0 mm 1 mps 629 mmHg 55%

    26 October, Thursday

    Time Temperature Precipitation Wind Pressure Humidity
    00:00 +9°C° 0 mm 1 mps 629 mmHg 52%
    01:00 +9°C° 0 mm 1 mps 629 mmHg 50%
    02:00 +9°C° 0 mm 1 mps 629 mmHg 49%
    03:00 +8°C° 0 mm 1 mps 629 mmHg 47%
    04:00 +8°C° 0 mm 1 mps 629 mmHg 47%
    05:00 +8°C° 0 mm 1 mps 629 mmHg 47%
    06:00 +8°C° 0 mm 1 mps 629 mmHg 47%
    07:00 +10°C° 0 mm 1 mps 630 mmHg 44%
    08:00 +13°C° 0 mm 1 mps 631 mmHg 42%
    09:00 +15°C° 0 mm 1 mps 633 mmHg 40%
    10:00 +16°C° 0 mm 1 mps 633 mmHg 38%
    11:00 +17°C° 0 mm 2 mps 633 mmHg 37%
    12:00 +18°C° 0 mm 2 mps 634 mmHg 36%
    13:00 +18°C° 0 mm 2 mps 633 mmHg 39%
    14:00 +18°C° 0 mm 2 mps 633 mmHg 42%
    15:00 +17°C° 0 mm 2 mps 632 mmHg 45%
    16:00 +15°C° 0 mm 2 mps 632 mmHg 54%
    17:00 +12°C° 0 mm 1 mps 631 mmHg 63%
    18:00 +10°C° 0 mm 1 mps 630 mmHg 72%
    19:00 +10°C° 0 mm 1 mps 630 mmHg 71%
    20:00 +9°C° 0 mm 1 mps 630 mmHg 69%
    21:00 +9°C° 0 mm 1 mps 630 mmHg 67%
    22:00 +9°C° 0 mm 1 mps 630 mmHg 65%
    23:00 +9°C° 0 mm 1 mps 630 mmHg 64%
    Show more